IRS B3

导读 | 星芒AI

IRS B3(印度遥感卫星B3)是印度空间研究组织(ISRO)发射的一颗地球观测卫星,主要用于遥感和资源监测。该卫星搭载高分辨率光学传感器,能够提供多光谱和全色图像,广泛应用于农业、环境监测、城市规划和灾害管理等领域。IRS B3的发射增强了印度在遥感技术方面的自主能力,为政府和商业用户提供重要的地理空间数据支持。

基本信息
目录编号:
23827
目录名称:
IRS B3
国际标识:
1996-017A
轨道中心:
EARTH
卫星名称:
IRS B3
卫星全名:
--
卫星状态:
在轨 (已飞行10817 天)
发射日期:
1996-03-21 UTC
国别 :
印度 (IN)
星等 :
--
轨道信息
数据来源 国际轨道数据 AOE轨道数据
星历时间 2025-10-31T22:50:16+0800
1天前
查看轨道信息
2025-10-31T02:00:00+0800
2天前
查看轨道信息
半长轴 7191.218km 7191.221km
偏心率 0.0002568 0.0002501
轨道倾角 99.045° 99.044°
近地点辐角 222.282° 224.564°
升交点赤经 316.889° 315.996°
平近点角 137.816° 8.185°
近地点 811.236km 811.287km
远地点 814.93km 814.885km
周期 101.149分钟 101.149分钟
每日圈数 14.236366 14.236356
详细信息
使用方式:
暂无
2D轨道图
3D轨道图
轨道高度分析图
轨道倾角分析图
轨道综合分析图
查看轨道综合分析图